Sparta, IL

1:09 AM CDT on October 21, 2019 (GMT -0500)
Sparta Community-Hunter

Weather History for KSAR - August, 2019

Change the Weather History Date:

Saturday, August 17, 2019

  Actual Average (KBLV) Record (KBLV)
Temperature  
Mean Temperature 78 °F -  
Max Temperature 89 °F 88 °F 100 °F (1988)
Min Temperature 68 °F 64 °F 54 °F (1971)
Cooling Degree Days 14    
Growing Degree Days 28 (Base 50)    
Moisture  
Dew Point 73 °F    
Average Humidity 81    
Maximum Humidity 100    
Minimum Humidity 60    
Precipitation  
Precipitation 0.00 in - - ()
Sea Level Pressure  
Sea Level Pressure 29.93 in    
Wind  
Wind Speed 5 mph (SSE)    
Max Wind Speed 13 mph    
Max Gust Speed 20 mph    
Visibility 10 miles    
Events Thunderstorm    
Averages and records for this station are not official NWS values.
T = Trace of Precipitation, MM = Missing Value Source: NWS Daily Summary

Daily Weather History Graph

Daily Weather History Graph

Search for Another Location

Airport or City:

Astronomy

Aug. 17, 2019 Rise Set
Actual Time 6:15 AM CDT 7:49 PM CDT
Civil Twilight 5:47 AM CDT 8:17 PM CDT
Nautical Twilight 5:13 AM CDT 8:51 PM CDT
Astronomical Twilight 4:37 AM CDT 9:26 PM CDT
Moon 9:19 PM CDT (8/17) 8:02 AM CDT (8/17)
Length of Visible Light 14h 30m
Length of Day
13h 34m
Waning Gibbous, 96% of the Moon is Illuminated
Aug 17
Waning Gibbous
Aug 23
Last Quarter
Aug 30
New
Sep 5
First Quarter
Sep 13
Full

Hourly Weather History & Observations

Time (CDT) Temp. Heat Index Dew Point Humidity Pressure Visibility Wind Dir Wind Speed Gust Speed Precip Events Conditions
12:15 AM 72.9 °F - 71.2 °F 95% 29.96 in 10.0 mi South 3.5 mph - N/A   Clear
12:35 AM 74.5 °F - 72.0 °F 92% 29.97 in 10.0 mi SSW 5.8 mph - N/A   Clear
12:55 AM 74.5 °F - 71.6 °F 91% 29.96 in 10.0 mi South 4.6 mph - N/A   Clear
1:15 AM 74.3 °F - 71.2 °F 90% 29.96 in 10.0 mi South 4.6 mph - N/A   Clear
1:35 AM 73.8 °F - 71.1 °F 91% 29.95 in 10.0 mi South 3.5 mph - N/A   Clear
1:55 AM 72.1 °F - 71.1 °F 96% 29.94 in 10.0 mi Calm Calm - N/A   Clear
2:15 AM 69.3 °F - 69.1 °F 99% 29.93 in 10.0 mi Calm Calm - N/A   Clear
2:35 AM 69.4 °F - 69.4 °F 100% 29.92 in 10.0 mi Calm Calm - N/A   Clear
2:55 AM 68.4 °F - 68.4 °F 100% 29.91 in 10.0 mi ESE 3.5 mph - N/A   Clear
3:15 AM 68.5 °F - 68.5 °F 100% 29.92 in 10.0 mi Calm Calm - N/A   Clear
3:35 AM 69.3 °F - 69.3 °F 100% 29.93 in 10.0 mi Calm Calm - N/A   Clear
3:55 AM 68.9 °F - 68.9 °F 100% 29.92 in 10.0 mi SE 3.5 mph - N/A   Clear
4:15 AM 70.2 °F - 70.2 °F 100% 29.92 in 10.0 mi South 4.6 mph - N/A   Clear
4:35 AM 71.2 °F - 70.5 °F 98% 29.93 in 10.0 mi South 4.6 mph - N/A   Clear
4:55 AM 71.6 °F - 70.7 °F 97% 29.93 in 10.0 mi SSE 5.8 mph - N/A   Clear
5:15 AM 71.4 °F - 70.9 °F 98% 29.93 in 10.0 mi South 5.8 mph - N/A   Clear
5:35 AM 74.1 °F - 72.0 °F 93% 29.94 in 10.0 mi South 5.8 mph - N/A   Clear
5:55 AM 74.1 °F - 72.1 °F 94% 29.93 in 10.0 mi South 8.1 mph - N/A   Clear
6:15 AM 74.3 °F - 72.5 °F 94% 29.93 in 10.0 mi South 8.1 mph - N/A   Clear
6:35 AM 74.3 °F - 72.5 °F 94% 29.93 in 10.0 mi South 6.9 mph - N/A   Clear
6:55 AM 74.1 °F - 72.5 °F 95% 29.94 in 10.0 mi SSW 9.2 mph - N/A   Clear
7:15 AM 74.3 °F - 72.5 °F 94% 29.96 in 10.0 mi SSW 8.1 mph - N/A   Clear
7:35 AM 74.5 °F - 72.7 °F 94% 29.97 in 10.0 mi SSW 8.1 mph - N/A   Clear
7:55 AM 74.3 °F - 72.5 °F 94% 29.97 in 10.0 mi SSW 6.9 mph - N/A   Clear
8:15 AM 74.5 °F - 72.7 °F 94% 29.98 in 10.0 mi SSW 4.6 mph - N/A   Clear
8:35 AM 75.0 °F - 72.7 °F 92% 29.98 in 10.0 mi SSW 4.6 mph - N/A   Clear
8:55 AM 76.1 °F - 73.2 °F 91% 29.96 in 10.0 mi SSW 5.8 mph - N/A   Scattered Clouds
9:15 AM 77.2 °F - 74.1 °F 90% 29.99 in 10.0 mi NNW 12.7 mph - N/A   Scattered Clouds
9:35 AM 76.6 °F - 73.2 °F 89% 29.99 in 10.0 mi NW 5.8 mph - N/A   Scattered Clouds
9:55 AM 77.2 °F - 72.9 °F 86% 29.98 in 10.0 mi North 5.8 mph - N/A   Clear
10:15 AM 78.4 °F - 72.7 °F 82% 29.98 in 10.0 mi NNE 4.6 mph - N/A   Clear
10:35 AM 78.3 °F - 72.0 °F 81% 29.98 in 10.0 mi NNE 5.8 mph - N/A   Clear
10:55 AM 80.1 °F 83.8 °F 71.8 °F 76% 29.99 in 10.0 mi Calm Calm - N/A   Clear
11:15 AM 80.2 °F 83.7 °F 70.9 °F 73% 29.99 in 10.0 mi Calm Calm - N/A   Clear
11:35 AM 81.1 °F 85.2 °F 71.2 °F 72% 29.98 in 10.0 mi ESE 4.6 mph - N/A   Clear
11:55 AM 81.9 °F 86.4 °F 71.6 °F 71% 29.98 in 10.0 mi SSE 5.8 mph - N/A   Clear
12:15 PM 82.4 °F 87.2 °F 71.6 °F 70% 29.97 in 10.0 mi SE 5.8 mph - N/A   Clear
12:35 PM 83.3 °F 89.3 °F 72.9 °F 71% 29.95 in 10.0 mi SSE 8.1 mph - N/A   Clear
12:55 PM 85.6 °F 92.2 °F 72.7 °F 65% 29.95 in 10.0 mi SSE 9.2 mph - N/A   Clear
1:15 PM 86.4 °F 93.4 °F 73.0 °F 64% 29.94 in 10.0 mi SSE 9.2 mph - N/A   Clear
1:35 PM 86.7 °F 94.1 °F 73.0 °F 64% 29.94 in 10.0 mi SSE 5.8 mph - N/A   Clear
1:55 PM 87.4 °F 95.3 °F 73.2 °F 63% 29.93 in 10.0 mi SSW 6.9 mph - N/A   Clear
2:15 PM 87.6 °F 95.2 °F 73.0 °F 62% 29.93 in 10.0 mi South 6.9 mph - N/A   Clear
2:35 PM 88.9 °F 98.1 °F 74.3 °F 62% 29.92 in 10.0 mi SSE 8.1 mph - N/A   Clear
2:55 PM 88.9 °F 97.1 °F 73.6 °F 60% 29.91 in 10.0 mi SSW 10.4 mph - N/A   Clear
3:15 PM 89.2 °F 98.4 °F 74.1 °F 61% 29.90 in 10.0 mi South 12.7 mph 18.4 mph N/A   Clear
3:35 PM 89.8 °F 99.7 °F 74.7 °F 61% 29.89 in 10.0 mi South 11.5 mph 18.4 mph N/A   Clear
3:55 PM 89.8 °F 100.3 °F 75.2 °F 62% 29.88 in 10.0 mi South 12.7 mph 19.6 mph N/A   Clear
4:15 PM 89.4 °F 100.0 °F 75.2 °F 63% 29.88 in 10.0 mi South 9.2 mph 18.4 mph N/A   Clear
4:35 PM 88.2 °F 98.5 °F 75.6 °F 66% 29.88 in 10.0 mi SSE 8.1 mph 17.3 mph N/A   Clear
4:55 PM 88.2 °F 99.0 °F 76.1 °F 67% 29.88 in 10.0 mi SSE 6.9 mph - N/A   Clear
5:15 PM 88.5 °F 100.5 °F 76.6 °F 68% 29.89 in 10.0 mi SSE 8.1 mph - N/A   Clear
5:35 PM 88.3 °F 98.9 °F 75.6 °F 66% 29.88 in 10.0 mi SSE 9.2 mph - N/A   Clear
5:55 PM 88.5 °F 99.4 °F 75.9 °F 66% 29.88 in 10.0 mi SSE 9.2 mph - N/A   Clear
6:15 PM 86.9 °F 96.4 °F 75.0 °F 68% 29.89 in 10.0 mi South 9.2 mph - N/A   Clear
6:35 PM 86.2 °F 94.6 °F 74.7 °F 68% 29.88 in 10.0 mi SSE 6.9 mph - N/A   Clear
6:55 PM 85.1 °F 93.3 °F 74.7 °F 71% 29.88 in 10.0 mi SSE 8.1 mph - N/A   Clear
7:15 PM 85.3 °F 93.7 °F 75.0 °F 71% 29.88 in 10.0 mi SSE 6.9 mph - N/A Thunderstorm Thunderstorm
7:35 PM 85.1 °F 93.3 °F 74.7 °F 71% 29.88 in 10.0 mi SSE 10.4 mph - N/A Thunderstorm Clear
7:55 PM 84.0 °F 91.2 °F 74.3 °F 72% 29.88 in 10.0 mi South 8.1 mph - N/A   Clear
8:15 PM 83.3 °F 90.2 °F 74.3 °F 74% 29.89 in 10.0 mi South 6.9 mph - N/A Thunderstorm Clear
8:35 PM 82.6 °F 89.1 °F 74.3 °F 76% 29.90 in 10.0 mi SSE 5.8 mph - N/A   Clear
8:55 PM 81.0 °F 86.5 °F 74.5 °F 81% 29.91 in 10.0 mi SSE 4.6 mph - N/A   Clear
9:15 PM 79.9 °F - 74.7 °F 84% 29.91 in 10.0 mi SE 4.6 mph - N/A   Clear
9:35 PM 79.0 °F - 74.5 °F 86% 29.92 in 10.0 mi SSE 4.6 mph - N/A   Clear
9:55 PM 79.2 °F - 74.1 °F 84% 29.92 in 10.0 mi SSE 4.6 mph - N/A   Clear
10:15 PM 79.5 °F - 73.8 °F 82% 29.93 in 10.0 mi SSE 5.8 mph - N/A   Clear
10:35 PM 80.6 °F 85.4 °F 73.4 °F 79% 29.93 in 10.0 mi South 6.9 mph - N/A   Clear
10:55 PM 80.4 °F 85.0 °F 73.2 °F 79% 29.93 in 10.0 mi South 6.9 mph - N/A   Clear
11:15 PM 80.6 °F 85.0 °F 72.9 °F 77% 29.92 in 10.0 mi South 6.9 mph - N/A   Clear
11:35 PM 79.7 °F - 72.7 °F 79% 29.93 in 10.0 mi SSE 5.8 mph - N/A   Clear
11:55 PM 79.3 °F - 72.7 °F 80% 29.93 in 10.0 mi SSE 5.8 mph - N/A   Clear